#timestamp,LO_Frequency,Hit,StdDev 
1561741215.3,286047008.0,N
1561741235.2,286047008.0,N
1561741255.9,286047009.8,N
1561741275.7,286047013.9,Y
1561741295.6,286047007.3,P
1561741315.4,286047007.2,P
1561741335.2,286047007.0,P
1561741355.1,286047007.5,Y
1561741356.0,286047007.5,P
1561741375.8,286046999.5,P
1561741395.6,286046997.2,N
1561741415.5,286046996.9,N
1561741435.3,286046995.8,N
1561741455.1,286046996.2,N
1561741475.8,286046996.3,N
1561741495.7,286046993.4,N
1561741515.5,286046993.3,N
1561741535.3,286046993.6,N
1561741555.2,286046995.2,N
1561741575.9,286046999.5,N
1561741595.7,286046999.2,N
1561741615.6,286046998.7,N
1561741635.4,286046999.8,N
1561741655.2,286047002.9,N
1561741675.0,286047008.5,N
1561741676.0,286047008.5,N
1561741695.8,286047009.1,N
1561741715.6,286047009.0,N
1561741735.4,286047010.7,N
1561741755.3,286047007.9,N
1561741775.1,286047009.5,N
1561741795.8,286047007.7,N
1561741815.7,286047009.2,N
1561741835.5,286047006.9,N
1561741855.3,286047006.7,N
1561741875.2,286047006.3,N
1561741895.9,286047007.4,N
1561741915.7,286047006.7,N
1561741935.5,286047010.8,N
1561741955.4,286047009.9,N
1561741975.2,286047009.4,N
1561741995.0,286047012.2,N
1561741995.9,286047012.2,N
1561742015.8,286047012.2,N
1561742035.6,286047012.3,N
1561742055.4,286047011.2,N
1561742075.3,286047013.6,N
1561742095.1,286047015.1,N
1561742096.0,286047015.1,Y
1561742115.8,286047004.9,P
1561742135.7,286047004.6,P
1561742155.5,286047007.2,P
1561742175.3,286047009.2,Y
1561742195.2,286047001.4,P
1561742215.9,286047003.0,N
1561742235.7,286047003.7,N
1561742255.6,286047002.9,N
1561742275.4,286047004.2,N
1561742295.2,286047003.2,N
1561742315.1,286047003.2,N
1561742316.0,286047003.2,N
1561742335.8,286047003.7,Y
1561742355.6,286046999.9,P
1561742375.5,286046999.9,N
1561742395.3,286047001.7,N
1561742415.1,286047003.7,N
1561742435.9,286047003.1,N
1561742455.7,286047005.6,Y
1561742475.5,286047007.6,P
1561742495.4,286047006.7,N
1561742515.2,286047006.5,N
1561742535.0,286047009.2,Y
1561742535.9,286047009.2,P
1561742555.8,286047002.0,N
1561742575.6,286047001.4,N
1561742595.4,286047003.6,N
1561742615.2,286047006.0,N
1561742635.1,286047007.5,N
1561742636.0,286047007.5,N
1561742655.8,286047006.2,N
1561742675.6,286047008.1,Y
1561742695.5,286047001.4,P
1561742715.3,286047000.3,N
1561742735.1,286047002.5,N
1561742755.9,286047000.2,N
1561742775.7,286047001.1,N
1561742795.5,286046999.3,N
1561742815.4,286046997.3,N
1561742835.2,286046997.4,N
1561742855.0,286046995.2,N
1561742855.9,286046995.2,N
1561742875.8,286046996.7,N
1561742895.6,286046996.8,N
1561742915.4,286046997.8,N
1561742935.2,286046999.7,N
1561742955.1,286047003.5,N
1561742956.0,286047003.5,N
1561742975.8,286047005.8,N
1561742995.6,286047003.4,N
1561743015.5,286047006.0,N
1561743035.3,286047003.5,N
1561743055.1,286047005.8,N
1561743075.9,286047007.2,N
1561743095.7,286047006.6,N
1561743115.5,286047004.9,N
1561743135.4,286047005.3,N
1561743155.2,286047004.2,N
1561743175.0,286047003.2,N
1561743175.9,286047003.2,N
1561743195.7,286047005.5,N
1561743215.6,286047005.3,N
1561743235.4,286047006.7,N
1561743255.2,286047007.3,N
1561743275.1,286047006.9,N
1561743276.0,286047006.9,N
1561743295.8,286047006.2,N
1561743315.6,286047008.6,N
1561743335.5,286047008.2,N
1561743355.3,286047010.8,N
1561743375.1,286047012.4,Y
1561743395.9,286047007.8,P
1561743415.7,286047010.1,P
1561743435.5,286047012.3,P
1561743455.4,286047011.7,Y
1561743475.2,286047002.2,P
1561743495.0,286047002.0,N
1561743495.9,286047002.0,N
1561743515.8,286047001.9,N
1561743535.6,286047002.5,N
1561743555.4,286047001.9,N
1561743575.2,286047002.6,N
1561743595.1,286047002.1,N
1561743596.0,286047002.1,N
1561743615.8,286047002.8,N
1561743635.6,286047002.3,N
1561743655.5,286047001.5,N
1561743675.3,286047002.4,N
1561743695.1,286046999.7,N
1561743715.9,286047001.6,N
1561743735.7,286047004.0,N
1561743755.5,286047001.3,N
1561743775.4,286047004.7,N
1561743795.2,286047005.8,Y
1561743815.0,286047004.2,P
1561743815.9,286047004.2,P
1561743835.8,286047004.0,P
1561743855.6,286047003.8,Y
1561743875.4,286047001.2,P
1561743895.3,286046998.6,N
1561743915.1,286047000.0,N
1561743916.0,286047000.0,N
1561743935.8,286047000.0,N
1561743955.7,286047002.2,N
1561743975.5,286047004.4,N
1561743995.3,286047005.5,N
1561744015.1,286047005.6,N
1561744035.9,286047005.7,N
1561744055.7,286047004.9,N
1561744075.5,286047006.8,N
1561744095.4,286047006.6,N
1561744115.2,286047004.6,N
1561744135.0,286047007.2,N
1561744135.9,286047007.2,N
1561744155.8,286047007.4,N
1561744175.6,286047007.4,N
1561744195.4,286047007.1,N
1561744215.2,286047007.3,N
1561744235.1,286047006.5,N
1561744236.0,286047006.5,N
1561744255.8,286047008.5,Y
1561744275.7,286047003.4,P
1561744295.5,286047005.6,P
1561744315.3,286047007.5,P
1561744335.2,286047005.1,Y
1561744355.9,286047001.0,P
1561744375.7,286047000.4,N
1561744395.5,286047000.1,N
1561744415.4,286047002.3,N
1561744435.2,286047000.1,N
1561744455.0,286047004.0,N
1561744455.9,286047004.0,N
1561744475.8,286047004.1,N
1561744495.6,286047005.6,N
1561744515.4,286047005.0,N
1561744535.3,286047006.9,Y
1561744555.1,286047005.7,P
1561744556.0,286047005.7,P
1561744575.8,286047005.0,P
1561744595.7,286047005.3,Y
1561744615.5,286047000.6,P
1561744635.3,286047001.1,N
1561744655.2,286047000.5,N
1561744675.9,286047001.1,N
1561744695.7,286047000.5,N
1561744715.6,286047001.3,N
1561744735.4,286047003.9,N
1561744755.2,286047001.7,N
1561744775.0,286047003.2,N
1561744776.0,286047003.2,N
1561744795.8,286047003.0,N
